Погода в Слуцке

Погода в Слуцке : погода сейчас, прогноз погоды и архив. Всё, что Вы хотите узнать о погоде в Слуцке!

Хотите узнать прогноз погоды в Слуцке? Тогда Вам сюда: Погода в Слуцке

Поиск расширенной информации на нашем сайте:

Другие новости

Новости СМИ2

Главная страница сайта

Новости сайта

03.07.2017

Напоминаем, что на нашем специализированном сайте Метеоцентр.Азия вы можете получить высокодетализированные автоматические прогнозы погоды по пунктам России, СНГ и мира в авиационном формате (включающие направление и скорость ветра, видимость, явления погоды, количество и форму облачности, нижнюю и верхнюю границу облачности).


Погода в Слуцке - сегодня

Время (UTC), дата Ветер
(°,м/с) 
Видим.   Явления Облачность Т
(°С)
Тd
(°С)
f(%) Тe
(°С)
Pmin
(гПа)
dP
(гПа)
Po
(мм)
O2
(г/м3)
Тmin Tmax R s Состояние
почвы
03 17.05.18 210 (ЮЗ) 16000 м    4/0 средняя 
[Ac trans]
+13 +11.3 89 +15  1009.1  0.1  742  283      0.4     
06 17.05.18 200 (Ю) 3{10}  18000 м    9/9 570 м 
[Sc]
+13.5 +11.4 87 +17  1010.2  1.2  743  283  +12.2    0.4     
09 17.05.18 220 (ЮЗ) 20000 м    8/8 600 м 
[Sc]
+17.2 +11.8 71 +21  1011  744  280           
12 17.05.18 180 (Ю) 22000 м    6/5 600 м средняя 
[Cu med, cong|Ac trans]
+20.3 +11.9 58 +24  1010.4  -0.3  744  277           
15 17.05.18 190 (Ю) 25000 м    5/3 600 м средняя, верхняя 
[Cu med, cong|Ac trans|Ci fib]
+21.2 +11.1 52 +24  1009.3  -1.1  743  276           
18 17.05.18 тихо ()   15000 м    9/6 600 м средняя 
[Sc|Ac trans]
+16.2 +11.5 74 +20  1009.6  743  280    +21.5       
21 17.05.18 тихо ()   12000 м    6/0 средняя 
[Ac und]
+14.2 +10.7 79 +16  1009.7  743  283           
00 18.05.18 120 (ЮВ) 10 км    5/0 верхняя 
[Ci sp]
+11.8 +9.4 85 +14  1009  -0.9  742  285           
03 18.05.18 090 (В) 10 км    3/0 верхняя 
[Ci sp]
+10.8 +9 89 +12  1008.6  -0.5  742  286           
06 18.05.18 тихо ()   15000 м    6/0 средняя, верхняя 
[Ac trans|Ci sp]
+16.2 +11.5 74 +20  1008.2  742  280  +9.8         
09 18.05.18 210 (ЮЗ) 25000 м    3/1 600 м верхняя 
[Cu hum|Cc]
+20.5 +11.1 55 +23  1007.6  -0.3  742  276           
12 18.05.18 270 (З) 25000 м    6/5 600 м верхняя 
[Cu med, cong|Ci fib]
+21.2 +10.4 50 +23  1006.5  -1.1  741  275           
15 18.05.18 140 (ЮВ) 10 км  гроза, ливневой дождь  8/8 300 м кучево-дожд., верхняя 
[Cb cap|Ci sp]
+19 +13.2 69 +27  1006.6  -0.1  741  276         
18 18.05.18 090 (В) 8000 м  слаб. ливневой дождь{гроза}  9/9 300 м кучево-дожд. 
[Cb cap]
+14 +12.7 92 +20  1008  1.2  742  282    +22.8  22     
21 18.05.18 010 (С) 6000 м  дымка{ливн. осадки}  9/9 600 м 
[Sc]
+13.4 +12.6 95 +20  1008.3  0.2  742  282           
00 19.05.18 010 (С) 6000 м  дымка{ливн. осадки}  9/9 600 м 
[Sc]
+12 +11.4 96 +16  1009.3  0.9  743  284           
06 19.05.18 310 (СЗ) 12000 м    9/4 600 м средняя 
[Sc|Ac und]
+14.2 +12.7 91 +20  1011.1  1.4  744  282  +11.4       
09 19.05.18 010 (С) 15000 м  гроза без осадков  8/8 600 м кучево-дожд. 
[Cb cap]
+17.1 +13.7 80 +24  1012.1  745  280           
12 19.05.18 010 (С) 6-10  18000 м  {гроза}  8/8 600 м 
[Cu Sc]
+18.6 +13.1 70 +25  1013  746  279           
15 19.05.18 020 (С) 3{10}  13000 м  ливневой дождь, в посл. час гроза  9/9 600 м кучево-дожд. 
[Cb cap]
+15.6 +13.4 87 +22  1014.5  1.4  747  282         
18 19.05.18 350 (С) 18000 м  {гроза, ливн. осадки}  5/3 600 м верхняя 
[Sc diur, vesp|Ci sp]
+14.2 +12.2 88 +19  1016.1  1.5  748  284    +19.5     
21 19.05.18 020 (С) 15000 м    ясно 
+9 +6.4 84 +9  1018.4  1.8  749  291           
00 20.05.18 010 (С) 12000 м    ясно 
+6.6 +4.5 86 +6  1019.9  1.3  750  294           
06 20.05.18 060 (СВ) 25000 м    ясно 
+12.8 +4.3 56 +14  1022.8  2.1  752  289  +4.9         
09 20.05.18 020 (С) 25000 м    6/6 1000 м 
[Cu hum]
+16.4 +4.3 45 +16  1023.1  0.5  753  286           
Время (UTC), дата Ветер
(°,м/с) 
Видим.   Явления Облачность Т
(°С)
Тd
(°С)
f(%) Тe
(°С)
Pmin
(гПа)
dP
(гПа)
Po
(мм)
O2
(г/м3)
Тmin Tmax R s Состояние
почвы

Для получения пояснительной информации подведите курсор к названию столбца.

ПОГОДА в Слуцке - архив

Всё, что Вы хотите узнать о погоде в Слуцке - удобно и подробно!

Выберите нужную дату (начиная с 1 января 2015* года) и нажмите кнопку "Найти".
Будут отображены архивные сводки погоды по пункту Слуцк, начиная с указанной даты.


Отображать данные в формате CSV (для использования в таблицах Excel)


Внимание! Наш архив погоды предназначен исключительно для личного некоммерческого использования в познавательных целях. Если Вам необходимы официальные справки о состоянии погоды (для производственных, юридических, коммерческих и т.п. целей), обращайтесь в органы Росгидромета.

*Примечание: данная дата относится к архиву по метеостанциям СССР (Россия, СНГ, Балтия).
Архив по метеостанциям Зарубежной Европы и Азии (кроме Китая) хранится 10 дней, по другим регионам земного шара (Китай, Африка, Америка, Австралия, Океания) - 1 день.

Слуцк - район местоположения метеостанции


Название, широта, долгота, высота метеостанции:
Слуцк 53°ш. 27.6°д. 162 м над ур. моря [Беларусь]

Дополнительная информация

В oтличие oт бoльшинства пoгoдных сайтoв мы публикуем пoдрoбную метеoинфoрмацию в детальнoм прoфессиoнальнoм фoрмате.

Характеристики температуры и влажнoсти вoздуха измеряются на высoте 2 м в тени вдали oт зданий и деревьев.
Скoрoсть ветра измеряется на высoте 10 м (на урoвне рoста челoвека скoрoсть ветра ниже в 1.5-2 раза). Если метеoстанция нахoдится в гoрoде или в лесу, тo скoрoсть ветра занижена на 2-4 м/с пo сравнению с oткрытым местoм. Скoрoсть ветра над акватoриями крупных рек и oзёр, а также на вершинах хoлмoв на 2-5 м/с выше, чем в oбычных услoвиях.
Атмoсфернoе давление в разных тoчках местнoсти мoжет значительнo oтличаться oт давления на метеoстанции, в зависимoсти oт услoвий рельефа (при пoдъёме на 10 м давление пoнижается примернo на 1 мм рт.ст.).